Weather History for KPVU - August, 2014

Change the Weather History Date:

Saturday, August 16, 2014

  Actual Average Record
Temperature  
Mean Temperature 73 °F -  
Max Temperature 89 °F 86 °F 96 °F (1986)
Min Temperature 57 °F 57 °F 47 °F (1987)
Cooling Degree Days 8    
Growing Degree Days 23 (Base 50)    
Moisture  
Dew Point 46 °F    
Average Humidity 33    
Maximum Humidity 59    
Minimum Humidity 16    
Precipitation  
Precipitation 0.00 in - - ()
Sea Level Pressure  
Sea Level Pressure 30.16 in    
Wind  
Wind Speed 5 mph (NNW)    
Max Wind Speed 15 mph    
Max Gust Speed -    
Visibility 10 miles    
Events      
Averages and records for this station are not official NWS values.
T = Trace of Precipitation, MM = Missing Value Source: NWS Daily Summary

Daily Weather History Graph

Daily Weather History Graph

Search for Another Location

Airport or City:

Trip Planner

Search our weather history database for the weather conditions in past years. The results will help you decide how hot, cold, wet, or windy it might be!

Date:

Astronomy

Aug. 16, 2014 Rise Set
Actual Time 6:39 AM MDT 8:22 PM MDT
Civil Twilight 6:10 AM MDT 8:51 PM MDT
Nautical Twilight 5:34 AM MDT 9:26 PM MDT
Astronomical Twilight 4:57 AM MDT 10:03 PM MDT
Moon No Moon Rise 1:29 PM MDT (8/16)
Length of Visible Light 14h 41m
Length of Day
13h 43m
Waning Gibbous, 58% of the Moon is Illuminated
Aug 16
Waning Gibbous
Aug 17
Last Quarter
Aug 25
New
Sep 2
First Quarter
Sep 8
Full

Hourly Weather History & Observations

Time (MDT) Temp. Heat Index Dew Point Humidity Pressure Visibility Wind Dir Wind Speed Gust Speed Precip Events Conditions
6:55 AM 57.2 °F - 42.8 °F 59% 30.18 in 10.0 mi ESE 4.6 mph - N/A   Clear
7:15 AM 59.0 °F - 42.8 °F 55% 30.18 in 10.0 mi SSE 3.5 mph - N/A   Clear
7:35 AM 59.0 °F - 44.6 °F 59% 30.19 in 10.0 mi Calm Calm - N/A   Clear
7:55 AM 62.6 °F - 41.0 °F 45% 30.19 in 10.0 mi ESE 4.6 mph - N/A   Clear
8:15 AM 64.4 °F - 41.0 °F 42% 30.20 in 10.0 mi ESE 4.6 mph - N/A   Clear
8:35 AM 66.2 °F - 42.8 °F 43% 30.21 in 10.0 mi Calm Calm - N/A   Clear
8:55 AM 68.0 °F - 44.6 °F 43% 30.21 in 10.0 mi ESE 3.5 mph - N/A   Clear
8:57 AM 69.8 °F - 44.6 °F 40% 30.21 in 15.0 mi East 3.5 mph - N/A   Clear
9:15 AM 69.8 °F - 42.8 °F 38% 30.21 in 10.0 mi Calm Calm - N/A   Clear
9:35 AM 71.6 °F - 42.8 °F 35% 30.21 in 10.0 mi ENE 3.5 mph - N/A   Clear
9:52 AM 73.4 °F - 44.6 °F 36% 30.21 in 15.0 mi Calm Calm - N/A   Clear
9:55 AM 73.4 °F - 44.6 °F 36% 30.21 in 10.0 mi East 3.5 mph - N/A   Clear
10:15 AM 77.0 °F - 44.6 °F 32% 30.21 in 10.0 mi SE 4.6 mph - N/A   Clear
10:35 AM 78.8 °F - 42.8 °F 28% 30.22 in 10.0 mi Calm Calm - N/A   Clear
10:47 AM 78.8 °F - 44.6 °F 30% 30.22 in 15.0 mi East 3.5 mph - N/A   Clear
10:55 AM 78.8 °F - 44.6 °F 30% 30.22 in 10.0 mi Calm Calm - N/A   Clear
11:15 AM 80.6 °F - 44.6 °F 28% 30.22 in 10.0 mi Calm Calm - N/A   Clear
11:35 AM 80.6 °F - 48.2 °F 32% 30.22 in 10.0 mi West 6.9 mph - N/A   Clear
11:48 AM 78.8 °F - 50.0 °F 36% 30.21 in 15.0 mi WSW 3.5 mph - N/A   Clear
11:55 AM 80.6 °F - 50.0 °F 34% 30.21 in 10.0 mi WNW 4.6 mph - N/A   Clear
12:15 PM 80.6 °F - 51.8 °F 37% 30.21 in 9.0 mi West 5.8 mph - N/A   Clear
12:35 PM 82.4 °F - 48.2 °F 30% 30.21 in 10.0 mi North 3.5 mph - N/A   Clear
12:55 PM 84.2 °F - 42.8 °F 23% 30.20 in 7.0 mi North 3.5 mph - N/A   Clear
1:15 PM 86.0 °F - 39.2 °F 19% 30.19 in 10.0 mi West 4.6 mph - N/A   Clear
1:35 PM 86.0 °F - 39.2 °F 19% 30.18 in 5.0 mi West 6.9 mph - N/A   Clear
1:55 PM 87.8 °F - 39.2 °F 18% 30.18 in 9.0 mi West 6.9 mph - N/A   Clear
2:15 PM 87.8 °F - 39.2 °F 18% 30.18 in 5.0 mi West 6.9 mph - N/A   Clear
2:35 PM 87.8 °F - 39.2 °F 18% 30.17 in 10.0 mi NW 6.9 mph - N/A   Clear
2:51 PM 89.6 °F - 37.4 °F 16% 30.17 in 15.0 mi NNW 6.9 mph - N/A   Clear
2:55 PM 89.6 °F - 37.4 °F 16% 30.17 in 5.0 mi North 9.2 mph - N/A   Clear
3:15 PM 89.6 °F - 37.4 °F 16% 30.16 in 9.0 mi NNW 5.8 mph - N/A   Clear
3:35 PM 89.6 °F - 39.2 °F 17% 30.15 in 10.0 mi NW 11.5 mph - N/A   Clear
3:49 PM 89.6 °F - 39.2 °F 17% 30.14 in 15.0 mi WNW 10.4 mph - N/A   Clear
3:55 PM 89.6 °F - 39.2 °F 17% 30.15 in 10.0 mi NW 12.7 mph - N/A   Clear
4:15 PM 89.6 °F - 39.2 °F 17% 30.14 in 10.0 mi NNW 6.9 mph - N/A   Clear
4:35 PM 89.6 °F - 42.8 °F 20% 30.13 in 10.0 mi NW 10.4 mph - N/A   Clear
4:49 PM 89.6 °F - 46.4 °F 22% 30.13 in 15.0 mi NNW 10.4 mph - N/A   Clear
4:55 PM 89.6 °F - 46.4 °F 22% 30.12 in 10.0 mi NW 8.1 mph - N/A   Clear
5:15 PM 89.6 °F - 46.4 °F 22% 30.12 in 10.0 mi NNW 12.7 mph - N/A   Clear
5:35 PM 89.6 °F - 48.2 °F 24% 30.11 in 10.0 mi NNW 11.5 mph - N/A   Clear
5:48 PM 89.6 °F - 50.0 °F 26% 30.11 in 15.0 mi WNW 12.7 mph - N/A   Partly Cloudy
5:55 PM 89.6 °F - 50.0 °F 26% 30.11 in 10.0 mi NW 12.7 mph - N/A   Clear
6:15 PM 89.6 °F - 48.2 °F 24% 30.11 in 9.0 mi NW 15.0 mph - N/A   Clear
6:35 PM 87.8 °F - 48.2 °F 25% 30.10 in 10.0 mi NW 15.0 mph - N/A   Clear
6:49 PM 87.8 °F - 48.2 °F 25% 30.10 in 15.0 mi WNW 12.7 mph - N/A   Partly Cloudy
6:55 PM 87.8 °F - 48.2 °F 25% 30.10 in 10.0 mi NNW 13.8 mph - N/A   Clear
7:15 PM 84.2 °F - 50.0 °F 30% 30.10 in 10.0 mi NW 13.8 mph - N/A   Clear
7:35 PM 84.2 °F - 51.8 °F 33% 30.10 in 10.0 mi NW 11.5 mph - N/A   Clear
7:55 PM 82.4 °F 81.4 °F 53.6 °F 37% 30.10 in 10.0 mi NW 10.4 mph - N/A   Clear
8:15 PM 80.6 °F 80.3 °F 53.6 °F 39% 30.11 in 10.0 mi NW 9.2 mph - N/A   Clear
8:35 PM 78.8 °F - 57.2 °F 47% 30.11 in 10.0 mi NW 10.4 mph - N/A   Clear
8:55 PM 78.8 °F - 53.6 °F 42% 30.12 in 10.0 mi NW 11.5 mph - N/A   Clear
9:15 PM 78.8 °F - 57.2 °F 47% 30.12 in 10.0 mi NNW 6.9 mph - N/A   Clear
9:35 PM 75.2 °F - 55.4 °F 50% 30.13 in 10.0 mi NNW 9.2 mph - N/A   Clear
9:55 PM 75.2 °F - 53.6 °F 47% 30.13 in 10.0 mi North 6.9 mph - N/A   Clear
10:15 PM 73.4 °F - 44.6 °F 36% 30.13 in 10.0 mi NE 4.6 mph - N/A   Clear
10:35 PM 69.8 °F - 44.6 °F 40% 30.13 in 10.0 mi East 5.8 mph - N/A   Clear
10:55 PM 69.8 °F - 50.0 °F 49% 30.13 in 10.0 mi SE 4.6 mph - N/A   Clear
11:15 PM 64.4 °F - 48.2 °F 56% 30.12 in 10.0 mi ESE 5.8 mph - N/A   Clear
11:35 PM 68.0 °F - 50.0 °F 52% 30.13 in 10.0 mi SE 8.1 mph - N/A   Clear
11:55 PM 66.2 °F - 48.2 °F 52% 30.13 in 10.0 mi East 4.6 mph - N/A   Clear